Location: Vancouver
(49.2500°N, 123.1330°W)
Time: 10:02:17
(UTC-07:00)

Cosmos 676 Rocket - Visible Passes

Search period start: 04 July 2015 00:00
Search period end: 14 July 2015 00:00
Orbit: 755 x 785 km, 74.0° (Epoch: 03 July)

Date Brightness Start Highest point End Pass type
(mag) Time Alt. Az. Time Alt. Az. Time Alt. Az.
04 Jul 6.3 00:34:10 10° WNW 00:36:13 12° W 00:37:58 10° WSW visible
04 Jul 4.1 22:13:12 10° NNW 22:18:25 66° ENE 22:23:34 10° SSE visible
04 Jul 5.9 23:56:19 10° NW 00:00:04 20° W 00:03:38 10° SW visible
05 Jul 5.4 23:19:16 10° NW 23:23:51 31° WSW 23:28:14 10° SSW visible
06 Jul 4.7 22:42:31 10° NNW 22:47:33 49° WSW 22:52:31 10° S visible
07 Jul 4.1 22:05:57 10° NNW 22:11:11 79° WSW 22:16:22 10° SSE visible
07 Jul 6.5 23:50:35 10° WNW 23:52:30 12° W 23:54:06 10° WSW visible
08 Jul 6.1 23:12:39 10° NW 23:16:20 19° W 23:19:52 10° SW visible
09 Jul 5.5 22:35:35 10° NW 22:40:07 30° WSW 22:44:34 10° SSW visible
10 Jul 4.8 21:58:49 10° NNW 22:03:50 48° WSW 22:08:47 10° S visible
11 Jul 6.6 23:07:01 10° WNW 23:08:46 11° W 23:10:13 10° WSW visible
12 Jul 6.3 22:28:59 10° NW 22:32:37 19° W 22:36:04 10° SW visible
13 Jul 5.7 21:51:54 10° NW 21:56:24 30° WSW 22:00:49 10° SSW visible
